| time (UTC) | temp F | wind direction | speed knots | gust knots | rain 1hr in | rain 24hr in | rain mn in | humidity % | barometer mb |
| 20260503224558 | 50 | 144 | 1.7 | 2.6 | 0.00 | 0.40 | 0.00 | 85 | 1014.2 |
| 20260503223103 | 51 | 0 | 0.0 | 0.0 | 0.00 | 0.40 | 0.00 | 82 | 1014.2 |
| 20260503221559 | 51 | 0 | 0.0 | 0.0 | 0.00 | 0.40 | 0.00 | 81 | 1014.2 |
| 20260503214557 | 52 | 0 | 0.0 | 2.6 | 0.00 | 0.40 | 0.40 | 80 | 1014.2 |
| 20260503213111 | 52 | 290 | 0.9 | 2.6 | 0.00 | 0.40 | 0.40 | 79 | 1014.1 |
| 20260503211559 | 53 | 287 | 0.9 | 2.6 | 0.00 | 0.40 | 0.40 | 77 | 1014.1 |
| 20260503210104 | 53 | 220 | 1.7 | 2.6 | 0.00 | 0.40 | 0.40 | 77 | 1014.1 |
| 20260503204601 | 54 | 247 | 0.0 | 2.6 | 0.00 | 0.40 | 0.40 | 76 | 1014.0 |
| 20260503203111 | 54 | 218 | 1.7 | 2.6 | 0.00 | 0.40 | 0.40 | 75 | 1013.7 |
| 20260503201601 | 54 | 220 | 0.9 | 3.5 | 0.00 | 0.40 | 0.40 | 74 | 1013.6 |
| 20260503200105 | 55 | 198 | 2.6 | 5.2 | 0.00 | 0.40 | 0.40 | 72 | 1013.5 |
| 20260503194604 | 55 | 229 | 0.0 | 3.5 | 0.00 | 0.40 | 0.40 | 71 | 1013.2 |
| 20260503193112 | 55 | 0 | 0.0 | 2.6 | 0.00 | 0.40 | 0.40 | 71 | 1013.0 |
| 20260503191609 | 56 | 262 | 1.7 | 5.2 | 0.00 | 0.40 | 0.40 | 69 | 1012.8 |
| 20260503190100 | 57 | 213 | 3.5 | 7.8 | 0.00 | 0.40 | 0.40 | 68 | 1012.7 |
| 20260503184610 | 58 | 233 | 4.3 | 10.4 | 0.00 | 0.40 | 0.40 | 67 | 1012.4 |
| 20260503183111 | 59 | 248 | 7.0 | 11.3 | 0.00 | 0.40 | 0.40 | 65 | 1012.5 |
| 20260503181609 | 59 | 242 | 7.0 | 13.0 | 0.00 | 0.40 | 0.40 | 66 | 1012.4 |
| 20260503180058 | 59 | 224 | 5.2 | 14.8 | 0.00 | 0.40 | 0.40 | 66 | 1012.3 |
| 20260503174558 | 60 | 211 | 7.0 | 14.8 | 0.00 | 0.40 | 0.40 | 64 | 1012.3 |
| 20260503173102 | 60 | 211 | 10.4 | 16.5 | 0.00 | 0.40 | 0.40 | 60 | 1012.1 |
| 20260503090105 | 48 | 181 | 6.1 | 18.2 | 0.22 | 0.87 | 0.23 | 93 | 1015.6 |
| 20260503081628 | 54 | 157 | 1.7 | 6.1 | 0.00 | 0.67 | 0.00 | 90 | 1014.6 |
| 20260503080117 | 55 | 162 | 3.5 | 9.6 | 0.00 | 0.67 | 0.00 | 89 | 1014.9 |
| 20260503071559 | 54 | 178 | 1.7 | 6.1 | 0.00 | 0.67 | 0.00 | 91 | 1014.7 |
| 20260503070107 | 54 | 0 | 0.0 | 6.1 | 0.00 | 0.67 | 0.00 | 93 | 1014.8 |
| 20260503060104 | 52 | 0 | 0.0 | 0.9 | 0.00 | 0.67 | 0.00 | 93 | 1015.1 |
| 20260503054606 | 52 | 0 | 0.0 | 4.3 | 0.00 | 0.67 | 0.00 | 93 | 1015.1 |
| 20260503053059 | 52 | 0 | 0.0 | 5.2 | 0.00 | 0.67 | 0.00 | 94 | 1015.1 |
| 20260503051559 | 52 | 226 | 0.0 | 3.5 | 0.00 | 0.67 | 0.00 | 94 | 1015.0 |
| 20260503050058 | 52 | 144 | 1.7 | 4.3 | 0.00 | 0.67 | 0.00 | 94 | 1015.0 |
| 20260503044610 | 51 | 176 | 0.9 | 2.6 | 0.00 | 0.67 | 0.00 | 94 | 1015.0 |
| 20260503043116 | 51 | 0 | 0.9 | 3.5 | 0.00 | 0.67 | 0.00 | 94 | 1015.0 |
| 20260503041558 | 51 | 261 | 0.9 | 3.5 | 0.00 | 0.67 | 0.00 | 94 | 1015.1 |
| 20260503040100 | 51 | 184 | 0.0 | 3.5 | 0.00 | 0.67 | 0.00 | 94 | 1015.3 |
| 20260503034600 | 51 | 203 | 0.9 | 2.6 | 0.00 | 0.67 | 0.00 | 94 | 1015.5 |
| 20260503033134 | 51 | 205 | 0.0 | 2.6 | 0.00 | 0.67 | 0.00 | 94 | 1015.5 |
| 20260503031602 | 51 | 257 | 0.0 | 2.6 | 0.00 | 0.67 | 0.00 | 94 | 1015.7 |
| 20260503030113 | 50 | 224 | 0.0 | 1.7 | 0.00 | 0.67 | 0.00 | 94 | 1015.6 |
| 20260503024623 | 50 | 0 | 0.0 | 0.9 | 0.00 | 0.67 | 0.00 | 94 | 1015.7 |
| 20260503023111 | 50 | 0 | 0.0 | 0.9 | 0.00 | 0.67 | 0.00 | 94 | 1015.7 |
| 20260503021604 | 50 | 61 | 0.0 | 1.7 | 0.00 | 0.67 | 0.00 | 94 | 1015.7 |
| 20260503020059 | 49 | 0 | 0.0 | 1.7 | 0.00 | 0.67 | 0.00 | 94 | 1015.8 |
| 20260503014602 | 50 | 0 | 0.0 | 0.9 | 0.00 | 0.67 | 0.00 | 94 | 1015.7 |
| 20260503013057 | 49 | 70 | 0.0 | 0.9 | 0.00 | 0.67 | 0.00 | 94 | 1015.8 |
| 20260503011605 | 49 | 63 | 0.0 | 1.7 | 0.00 | 0.67 | 0.00 | 94 | 1016.2 |
| 20260503010100 | 49 | 0 | 0.0 | 0.9 | 0.00 | 0.67 | 0.00 | 94 | 1016.3 |
| 20260503004601 | 49 | 0 | 0.0 | 0.9 | 0.00 | 0.67 | 0.00 | 94 | 1016.4 |
| 20260503003059 | 49 | 0 | 0.0 | 2.6 | 0.00 | 0.67 | 0.00 | 94 | 1016.2 |
| 20260503001603 | 49 | 122 | 0.0 | 0.9 | 0.00 | 0.66 | 0.00 | 94 | 1016.6 |
| 20260503000108 | 49 | 116 | 0.9 | 1.7 | 0.00 | 0.66 | 0.00 | 93 | 1016.7 |
| 20260502234615 | 49 | 117 | 0.9 | 0.9 | 0.00 | 0.66 | 0.00 | 93 | 1017.0 |
| 20260502233109 | 49 | 0 | 0.0 | 2.6 | 0.00 | 0.66 | 0.00 | 93 | 1017.1 |
| 20260502231612 | 49 | 72 | 0.9 | 2.6 | 0.00 | 0.66 | 0.00 | 93 | 1016.9 |
| 20260502230059 | 49 | 63 | 0.0 | 0.9 | 0.00 | 0.66 | 0.00 | 93 | 1017.1 |